Location: B�retswil
(47.3376°N, 8.8534°E)
Time: 15:42:38
(UTC+00:00)

Cosmos 1500 - Pass Details

Date: 03 March 2021
Orbit: 499 x 517 km, 82.5° (Epoch: 19 April)

Event Time Altitude Azimuth Distance (km) Brightness Sun altitude
Rises 18:46:15 0° 195° (SSW) 2,579 6.8 -16.6°
Reaches altitude 10° 18:48:22 10° 199° (SSW) 1,700 5.9 -16.9°
Maximum altitude 18:52:03 62° 281° (W) 565 3.6 -17.6°
Drops below altitude 10° 18:55:47 10° 3° (N) 1,716 5.9 -18.2°
Sets 18:57:56 0° 7° (N) 2,606 6.8 -18.5°
